| time (UTC) | temp F | wind direction | speed MPH | gust MPH | rain 1hr in | rain 24hr in | rain mn in | humidity % | barometer mb |
| 20260831105804 | 64 | 287 | 8.0 | 15.0 | 0.00 | 0.01 | 0.01 | 82 | 1011.3 |
| 20260831103304 | 63 | 253 | 6.0 | 12.0 | 0.00 | 0.01 | 0.01 | 85 | 1011.1 |
| 20260831102805 | 63 | 276 | 9.0 | 15.0 | 0.00 | 0.01 | 0.01 | 84 | 1011.1 |
| 20260831101804 | 63 | 264 | 5.0 | 12.0 | 0.00 | 0.01 | 0.01 | 86 | 1010.9 |
| 20260831101304 | 63 | 243 | 6.0 | 13.0 | 0.00 | 0.01 | 0.01 | 86 | 1010.8 |
| 20260831095306 | 61 | 254 | 6.0 | 13.0 | 0.00 | 0.01 | 0.01 | 88 | 1010.7 |
| 20260831094804 | 61 | 257 | 8.0 | 13.0 | 0.00 | 0.01 | 0.01 | 88 | 1010.7 |
| 20260831094304 | 61 | 261 | 8.0 | 14.0 | 0.00 | 0.01 | 0.01 | 88 | 1010.5 |
| 20260831093804 | 61 | 259 | 6.0 | 15.0 | 0.00 | 0.01 | 0.01 | 88 | 1010.5 |
| 20260831093305 | 61 | 274 | 5.0 | 9.0 | 0.00 | 0.01 | 0.01 | 88 | 1010.3 |
| 20260831092306 | 62 | 266 | 6.0 | 12.0 | 0.00 | 0.01 | 0.01 | 88 | 1010.2 |
| 20260831091804 | 61 | 272 | 6.0 | 12.0 | 0.00 | 0.01 | 0.01 | 89 | 1010.2 |
| 20260831091304 | 61 | 237 | 5.0 | 12.0 | 0.00 | 0.01 | 0.01 | 89 | 1010.1 |
| 20260831090805 | 61 | 263 | 7.0 | 17.0 | 0.00 | 0.01 | 0.01 | 89 | 1010.1 |
| 20260831085804 | 61 | 256 | 7.0 | 15.0 | 0.00 | 0.02 | 0.01 | 89 | 1010.0 |
| 20260831085306 | 61 | 263 | 8.0 | 15.0 | 0.00 | 0.02 | 0.01 | 90 | 1009.9 |
| 20260831084305 | 60 | 242 | 8.0 | 14.0 | 0.00 | 0.02 | 0.01 | 90 | 1009.7 |
| 20260831083304 | 61 | 254 | 6.0 | 12.0 | 0.00 | 0.02 | 0.01 | 91 | 1009.4 |
| 20260831082805 | 60 | 247 | 7.0 | 12.0 | 0.00 | 0.02 | 0.01 | 91 | 1009.4 |
| 20260831081305 | 60 | 240 | 6.0 | 18.0 | 0.00 | 0.02 | 0.01 | 92 | 1009.2 |
| 20260831080304 | 59 | 262 | 6.0 | 14.0 | 0.01 | 0.02 | 0.01 | 93 | 1009.1 |
| 20260831074805 | 59 | 232 | 5.0 | 12.0 | 0.01 | 0.02 | 0.01 | 94 | 1009.0 |
| 20260831074305 | 58 | 254 | 5.0 | 12.0 | 0.01 | 0.02 | 0.01 | 94 | 1008.8 |
| 20260831073805 | 58 | 267 | 5.0 | 17.0 | 0.01 | 0.02 | 0.01 | 94 | 1008.8 |
| 20260831072306 | 57 | 245 | 6.0 | 15.0 | 0.01 | 0.02 | 0.01 | 95 | 1008.5 |
| 20260831070805 | 57 | 240 | 6.0 | 16.0 | 0.00 | 0.01 | 0.00 | 95 | 1008.3 |
| 20260831065804 | 57 | 218 | 7.0 | 13.0 | 0.00 | 0.01 | 0.00 | 96 | 1008.3 |
| 20260831064805 | 56 | 234 | 6.0 | 12.0 | 0.00 | 0.01 | 0.00 | 96 | 1008.1 |
| 20260831064304 | 56 | 223 | 6.0 | 12.0 | 0.00 | 0.01 | 0.00 | 96 | 1007.9 |
| 20260831062804 | 56 | 223 | 5.0 | 13.0 | 0.00 | 0.01 | 0.00 | 96 | 1007.8 |
| 20260831062306 | 56 | 239 | 6.0 | 12.0 | 0.00 | 0.01 | 0.00 | 96 | 1007.7 |
| 20260831060304 | 55 | 228 | 5.0 | 12.0 | 0.00 | 0.01 | 0.00 | 96 | 1007.3 |
| 20260831054804 | 55 | 251 | 4.0 | 10.0 | 0.00 | 0.01 | 0.00 | 96 | 1007.1 |
| 20260831053804 | 55 | 229 | 5.0 | 13.0 | 0.00 | 0.01 | 0.00 | 96 | 1007.1 |
| 20260831052307 | 55 | 219 | 4.0 | 10.0 | 0.00 | 0.01 | 0.00 | 96 | 1006.9 |
| 20260831051804 | 55 | 230 | 5.0 | 12.0 | 0.00 | 0.01 | 0.00 | 96 | 1006.9 |
| 20260831050804 | 55 | 237 | 6.0 | 12.0 | 0.00 | 0.01 | 0.00 | 96 | 1006.8 |
| 20260831045804 | 55 | 244 | 6.0 | 12.0 | 0.00 | 0.01 | 0.00 | 96 | 1006.6 |
| 20260831043804 | 55 | 229 | 4.0 | 9.0 | 0.00 | 0.01 | 0.00 | 95 | 1006.6 |
| 20260831042804 | 55 | 220 | 5.0 | 9.0 | 0.00 | 0.01 | 0.00 | 95 | 1006.6 |
| 20260831041305 | 55 | 234 | 6.0 | 12.0 | 0.00 | 0.01 | 0.00 | 96 | 1006.4 |
| 20260831035804 | 55 | 248 | 5.0 | 10.0 | 0.00 | 0.01 | 0.00 | 95 | 1006.5 |
| 20260831034304 | 55 | 243 | 6.0 | 13.0 | 0.00 | 0.01 | 0.00 | 96 | 1006.4 |
| 20260831033804 | 55 | 254 | 5.0 | 15.0 | 0.00 | 0.01 | 0.00 | 96 | 1006.4 |
| 20260831032804 | 56 | 235 | 5.0 | 8.0 | 0.00 | 0.01 | 0.00 | 95 | 1006.4 |
| 20260831032306 | 56 | 222 | 5.0 | 10.0 | 0.00 | 0.01 | 0.00 | 95 | 1006.3 |
| 20260831031805 | 56 | 239 | 5.0 | 12.0 | 0.00 | 0.01 | 0.00 | 95 | 1006.3 |
| 20260831030304 | 56 | 228 | 5.0 | 14.0 | 0.00 | 0.01 | 0.00 | 95 | 1006.2 |
| 20260831025804 | 56 | 228 | 4.0 | 10.0 | 0.00 | 0.01 | 0.00 | 95 | 1006.2 |
| 20260831025306 | 56 | 237 | 5.0 | 9.0 | 0.00 | 0.01 | 0.00 | 95 | 1006.1 |
| 20260831024804 | 56 | 220 | 4.0 | 12.0 | 0.00 | 0.01 | 0.00 | 95 | 1006.1 |
| 20260831024304 | 56 | 216 | 5.0 | 12.0 | 0.00 | 0.01 | 0.00 | 95 | 1006.1 |
| 20260831023304 | 57 | 232 | 7.0 | 15.0 | 0.00 | 0.01 | 0.00 | 94 | 1006.3 |
| 20260831021804 | 58 | 260 | 9.0 | 22.0 | 0.00 | 0.01 | 0.00 | 95 | 1006.1 |
| 20260831021305 | 59 | 255 | 7.0 | 14.0 | 0.00 | 0.01 | 0.00 | 95 | 1005.7 |
| 20260831015804 | 59 | 247 | 6.0 | 12.0 | 0.00 | 0.01 | 0.00 | 95 | 1005.7 |
| 20260831015306 | 59 | 200 | 4.0 | 10.0 | 0.00 | 0.01 | 0.00 | 96 | 1005.8 |
| 20260831014804 | 59 | 213 | 9.0 | 17.0 | 0.00 | 0.01 | 0.00 | 96 | 1005.8 |
| 20260831013304 | 60 | 217 | 8.0 | 16.0 | 0.00 | 0.01 | 0.00 | 95 | 1005.9 |
| 20260831012805 | 60 | 213 | 5.0 | 12.0 | 0.00 | 0.01 | 0.00 | 95 | 1005.9 |
| 20260831012306 | 60 | 226 | 8.0 | 17.0 | 0.00 | 0.01 | 0.00 | 95 | 1005.9 |
| 20260831011804 | 60 | 241 | 5.0 | 14.0 | 0.00 | 0.01 | 0.00 | 95 | 1005.9 |
| 20260831011306 | 60 | 219 | 4.0 | 13.0 | 0.00 | 0.01 | 0.00 | 95 | 1006.0 |
| 20260831010804 | 60 | 214 | 5.0 | 13.0 | 0.00 | 0.01 | 0.00 | 95 | 1006.0 |
| 20260831004304 | 60 | 204 | 3.0 | 10.0 | 0.00 | 0.01 | 0.00 | 95 | 1006.1 |
| 20260831003804 | 60 | 210 | 5.0 | 12.0 | 0.00 | 0.01 | 0.00 | 95 | 1006.1 |
| 20260831002306 | 60 | 197 | 4.0 | 10.0 | 0.00 | 0.01 | 0.00 | 95 | 1006.2 |
| 20260831001804 | 59 | 200 | 5.0 | 9.0 | 0.00 | 0.01 | 0.00 | 95 | 1006.2 |
| 20260831001305 | 59 | 225 | 3.0 | 8.0 | 0.00 | 0.01 | 0.00 | 95 | 1006.3 |
| 20260831000804 | 59 | 191 | 3.0 | 8.0 | 0.00 | 0.01 | 0.00 | 95 | 1006.3 |
| 20260830235804 | 59 | 205 | 3.0 | 9.0 | 0.00 | 0.01 | 0.00 | 95 | 1006.4 |
| 20260830234304 | 59 | 197 | 2.0 | 8.0 | 0.00 | 0.01 | 0.00 | 95 | 1006.7 |
| 20260830233804 | 59 | 195 | 4.0 | 8.0 | 0.00 | 0.01 | 0.00 | 95 | 1006.7 |
| 20260830233305 | 59 | 225 | 5.0 | 12.0 | 0.00 | 0.01 | 0.00 | 95 | 1006.8 |
| 20260830232804 | 59 | 206 | 3.0 | 9.0 | 0.00 | 0.01 | 0.00 | 95 | 1006.8 |
| 20260830225306 | 59 | 218 | 5.0 | 15.0 | 0.00 | 0.01 | 0.01 | 95 | 1007.2 |
| 20260830224805 | 59 | 220 | 4.0 | 9.0 | 0.00 | 0.01 | 0.01 | 95 | 1007.2 |
| 20260830224305 | 59 | 173 | 2.0 | 7.0 | 0.00 | 0.01 | 0.01 | 95 | 1007.2 |
| 20260830223304 | 59 | 209 | 2.0 | 10.0 | 0.00 | 0.01 | 0.01 | 95 | 1007.2 |
| 20260830221320 | 59 | 238 | 3.0 | 8.0 | 0.00 | 0.01 | 0.01 | 95 | 1007.4 |
| 20260830214805 | 60 | 229 | 5.0 | 14.0 | 0.00 | 0.01 | 0.01 | 95 | 1007.4 |
| 20260830213304 | 61 | 218 | 2.0 | 10.0 | 0.00 | 0.01 | 0.01 | 96 | 1007.3 |
| 20260830211305 | 61 | 239 | 5.0 | 12.0 | 0.00 | 0.01 | 0.01 | 96 | 1007.2 |
| 20260830210804 | 61 | 221 | 4.0 | 12.0 | 0.00 | 0.01 | 0.01 | 96 | 1007.2 |
| 20260830210305 | 61 | 193 | 3.0 | 12.0 | 0.00 | 0.01 | 0.01 | 96 | 1007.0 |
| 20260830205305 | 61 | 191 | 3.0 | 12.0 | 0.00 | 0.01 | 0.01 | 96 | 1007.2 |
| 20260830204304 | 61 | 198 | 3.0 | 10.0 | 0.00 | 0.01 | 0.01 | 96 | 1007.4 |
| 20260830203804 | 61 | 216 | 2.0 | 6.0 | 0.00 | 0.01 | 0.01 | 96 | 1007.4 |
| 20260830203304 | 61 | 166 | 3.0 | 5.0 | 0.00 | 0.01 | 0.01 | 96 | 1007.3 |
| 20260830202804 | 61 | 161 | 1.0 | 3.0 | 0.00 | 0.01 | 0.01 | 96 | 1007.3 |
| 20260830200804 | 61 | 211 | 2.0 | 3.0 | 0.00 | 0.01 | 0.01 | 96 | 1007.6 |
| 20260830195305 | 61 | 169 | 1.0 | 5.0 | 0.00 | 0.01 | 0.01 | 96 | 1007.7 |
| 20260830194304 | 61 | 173 | 2.0 | 3.0 | 0.00 | 0.01 | 0.01 | 96 | 1007.7 |
| 20260830193804 | 61 | 177 | 2.0 | 5.0 | 0.00 | 0.01 | 0.01 | 95 | 1007.7 |
| 20260830191804 | 62 | 211 | 1.0 | 3.0 | 0.00 | 0.01 | 0.01 | 95 | 1007.9 |
| 20260830185804 | 62 | 173 | 2.0 | 8.0 | 0.00 | 0.01 | 0.01 | 95 | 1007.8 |
| 20260830185306 | 62 | 184 | 2.0 | 6.0 | 0.00 | 0.01 | 0.01 | 95 | 1007.8 |
| 20260830183304 | 62 | 194 | 1.0 | 5.0 | 0.00 | 0.01 | 0.01 | 95 | 1008.2 |
| 20260830181805 | 62 | 225 | 2.0 | 8.0 | 0.00 | 0.01 | 0.01 | 95 | 1008.0 |
| 20260830181304 | 62 | 198 | 3.0 | 7.0 | 0.00 | 0.01 | 0.01 | 94 | 1008.2 |
| 20260830180804 | 62 | 188 | 1.0 | 5.0 | 0.00 | 0.01 | 0.01 | 94 | 1008.2 |
| 20260830180304 | 62 | 189 | 2.0 | 5.0 | 0.00 | 0.01 | 0.01 | 94 | 1008.4 |
| 20260830175306 | 62 | 218 | 5.0 | 9.0 | 0.00 | 0.01 | 0.01 | 94 | 1008.3 |
| 20260830174305 | 62 | 190 | 5.0 | 10.0 | 0.00 | 0.01 | 0.01 | 94 | 1008.4 |
| 20260830173304 | 62 | 199 | 2.0 | 6.0 | 0.00 | 0.01 | 0.01 | 94 | 1008.4 |
| 20260830171804 | 63 | 185 | 3.0 | 8.0 | 0.00 | 0.01 | 0.01 | 93 | 1008.4 |
| 20260830170304 | 63 | 207 | 4.0 | 12.0 | 0.00 | 0.01 | 0.01 | 93 | 1008.6 |
| 20260830164804 | 63 | 196 | 2.0 | 5.0 | 0.00 | 0.01 | 0.01 | 93 | 1008.9 |
| 20260830164304 | 63 | 207 | 3.0 | 7.0 | 0.00 | 0.01 | 0.01 | 92 | 1008.9 |
| 20260830163304 | 63 | 193 | 3.0 | 7.0 | 0.00 | 0.01 | 0.01 | 91 | 1008.9 |
| 20260830162805 | 63 | 231 | 3.0 | 7.0 | 0.00 | 0.01 | 0.01 | 90 | 1008.9 |
| 20260830161804 | 64 | 217 | 6.0 | 12.0 | 0.00 | 0.01 | 0.01 | 89 | 1009.0 |
| 20260830161304 | 64 | 205 | 2.0 | 12.0 | 0.00 | 0.01 | 0.01 | 88 | 1009.0 |
| 20260830160304 | 65 | 183 | 3.0 | 9.0 | 0.00 | 0.01 | 0.01 | 87 | 1009.1 |
| 20260830155804 | 66 | 163 | 6.0 | 13.0 | 0.00 | 0.01 | 0.01 | 87 | 1009.1 |
| 20260830154304 | 66 | 180 | 5.0 | 17.0 | 0.00 | 0.01 | 0.01 | 86 | 1009.1 |
| 20260830153804 | 65 | 199 | 5.0 | 15.0 | 0.00 | 0.01 | 0.01 | 86 | 1009.1 |
| 20260830153304 | 65 | 229 | 5.0 | 10.0 | 0.00 | 0.01 | 0.01 | 86 | 1009.2 |
| 20260830152804 | 65 | 177 | 5.0 | 12.0 | 0.00 | 0.01 | 0.01 | 85 | 1009.2 |
| 20260830152306 | 65 | 186 | 7.0 | 14.0 | 0.00 | 0.01 | 0.01 | 85 | 1009.2 |
| 20260830151304 | 65 | 205 | 5.0 | 14.0 | 0.00 | 0.01 | 0.01 | 85 | 1009.2 |
| 20260830150304 | 65 | 222 | 5.0 | 12.0 | 0.00 | 0.01 | 0.01 | 86 | 1009.4 |
| 20260830145804 | 65 | 202 | 3.0 | 14.0 | 0.00 | 0.01 | 0.01 | 85 | 1009.4 |
| 20260830145306 | 66 | 238 | 5.0 | 13.0 | 0.00 | 0.01 | 0.01 | 84 | 1009.4 |
| 20260830144304 | 66 | 193 | 6.0 | 10.0 | 0.00 | 0.01 | 0.01 | 83 | 1009.5 |
| 20260830143804 | 66 | 206 | 4.0 | 12.0 | 0.00 | 0.01 | 0.01 | 84 | 1009.5 |
| 20260830142804 | 66 | 157 | 4.0 | 9.0 | 0.00 | 0.01 | 0.01 | 84 | 1009.5 |
| 20260830140804 | 66 | 212 | 6.0 | 12.0 | 0.00 | 0.01 | 0.01 | 83 | 1009.6 |
| 20260830140305 | 66 | 218 | 5.0 | 9.0 | 0.00 | 0.01 | 0.01 | 83 | 1009.7 |
| 20260830135804 | 66 | 218 | 5.0 | 12.0 | 0.00 | 0.01 | 0.01 | 83 | 1009.7 |
| 20260830135306 | 66 | 189 | 5.0 | 12.0 | 0.00 | 0.01 | 0.01 | 82 | 1009.8 |
| 20260830131804 | 66 | 195 | 5.0 | 12.0 | 0.00 | 0.01 | 0.01 | 85 | 1009.9 |
| 20260830131304 | 66 | 188 | 5.0 | 14.0 | 0.00 | 0.01 | 0.01 | 87 | 1010.0 |
| 20260830130304 | 65 | 204 | 6.0 | 18.0 | 0.00 | 0.01 | 0.01 | 87 | 1010.1 |
| 20260830125804 | 65 | 232 | 5.0 | 12.0 | 0.00 | 0.01 | 0.01 | 87 | 1010.1 |
| 20260830124804 | 65 | 183 | 5.0 | 13.0 | 0.00 | 0.01 | 0.01 | 85 | 1010.1 |
| 20260830123304 | 65 | 191 | 5.0 | 12.0 | 0.00 | 0.01 | 0.01 | 82 | 1010.1 |
| 20260830122804 | 66 | 210 | 6.0 | 15.0 | 0.00 | 0.01 | 0.01 | 83 | 1010.1 |
| 20260830122306 | 66 | 193 | 5.0 | 12.0 | 0.00 | 0.01 | 0.01 | 84 | 1010.2 |
| 20260830121305 | 66 | 206 | 4.0 | 10.0 | 0.00 | 0.01 | 0.01 | 83 | 1010.1 |
| 20260830120804 | 66 | 181 | 4.0 | 10.0 | 0.00 | 0.01 | 0.01 | 83 | 1010.1 |
| 20260830115306 | 66 | 206 | 4.0 | 17.0 | 0.00 | 0.01 | 0.01 | 82 | 1010.2 |
| 20260830114304 | 67 | 211 | 6.0 | 13.0 | 0.00 | 0.01 | 0.01 | 81 | 1010.3 |
| 20260830113804 | 67 | 176 | 2.0 | 8.0 | 0.00 | 0.01 | 0.01 | 81 | 1010.3 |
| 20260830113304 | 67 | 209 | 5.0 | 10.0 | 0.00 | 0.01 | 0.01 | 81 | 1010.3 |
| 20260830111804 | 68 | 219 | 5.0 | 12.0 | 0.00 | 0.01 | 0.01 | 81 | 1010.3 |
| 20260830110304 | 67 | 215 | 5.0 | 12.0 | 0.00 | 0.01 | 0.01 | 81 | 1010.3 |